Home   Weather   Concord   Past weeks

Flag for USA Past Weather in Concord, California, USA — Yesterday and Last 2 Weeks

62 °F

Rain. Fog.

Feels Like: 62 °F
Forecast: 60 / 68 °F
Wind: No wind

Location: Buchanan Field

Current Time: Oct 27, 2016 at 11:42:23 PM

Latest Report: Oct 27, 2016 at 10:53 PM

Visibility: 5 mi

Pressure: 29.88 "Hg

Humidity: 86%

Dew Point: 58 °F

Location of ConcordLocation

Past Weather in Concord — Graph


Concord Temperature Yesterday

Maximum temperature yesterday: 76 °F (at 1:53 PM)
Minimum temperature yesterday: 54 °F (at 6:53 AM)
Average temperature yesterday: 64 °F

High & Low Weather Summary for the Past Weeks

High83 °F (Oct 20, 4:53 PM)90% (Oct 15, 12:53 AM)30.17 "Hg (Oct 15, 12:53 AM)
Low50 °F (Oct 18, 6:53 AM)21% (Oct 19, 2:53 PM)29.70 "Hg (Oct 16, 2:53 PM)
Average63 °F65%29.94 "Hg
* Reported Oct 12 9:53 PM — Oct 27 9:53 PM, Concord, Weather by CustomWeather, © 2016

Note: Actual official high and low records may vary slightly from our data, if they occured in-between our weather recording intervals... More about our weather records


Concord Weather History for the Previous 24 Hours

Scroll right to see more
Time TempWeatherWind HumidityBarometerVisibility
9:53 PM
Thu, Oct 27
62 °FLight rain. Fog.3 mph86%29.89 "Hg6 mi
8:53 PM62 °FLight rain. Fog.No wind86%29.90 "Hg2 mi
7:53 PM62 °FHeavy rain. Fog.No wind90%29.91 "Hg2 mi
6:53 PM63 °FLight rain. Overcast.3 mph84%29.88 "Hg2 mi
5:53 PM63 °FLight rain. Mostly cloudy.No wind84%29.88 "Hg2 mi
4:53 PM63 °FLight rain. Fog.3 mph81%29.91 "Hg2 mi
4:00 PM64 °FFog.5 mph81%29.93 "Hg10 mi
2:53 PM64 °FMostly cloudy.3 mph78%29.91 "Hg7 mi
2:00 PM66 °FLight rain. More clouds than sun.6 mph73%29.95 "Hg7 mi
12:53 PM67 °FOvercast.5 mph66%29.91 "Hg10 mi
11:53 AM66 °FOvercast.3 mph68%29.93 "Hg10 mi
10:53 AM65 °FOvercast.No wind68%29.93 "Hg10 mi
9:53 AM64 °FMostly cloudy.No wind73%29.94 "Hg10 mi
8:53 AM62 °FMostly cloudy.3 mph78%29.93 "Hg10 mi
7:53 AM61 °FLight rain. Mostly cloudy.5 mph81%29.90 "Hg10 mi
6:53 AM60 °FMostly cloudy.3 mph83%29.91 "Hg10 mi
5:53 AM61 °FOvercast.No wind78%29.89 "Hg10 mi
4:53 AM59 °FOvercast.3 mph87%29.89 "Hg10 mi
3:53 AM60 °FOvercast.No wind83%29.90 "Hg10 mi
2:53 AM60 °FLight rain. Mostly cloudy.No wind80%29.95 "Hg8 mi
1:53 AM60 °FOvercast.3 mph78%29.94 "Hg10 mi
12:53 AM60 °FPassing clouds.No wind78%29.94 "Hg10 mi
11:53 PM
Wed, Oct 26
58 °FClear.No wind81%29.94 "Hg10 mi
Weather by CustomWeather, © 2016

See weather overviewHow to use our weather pages